SWISSCUBE

Last updated on Thu Nov 21 2024 00:03:02 GMT+0000 (Coordinated Universal Time)

1 35932U 09051B 24325.25980642 .00002378 00000+0 50307-3 0 9996 2 35932 98.4484 211.6087 0006459 185.7330 174.3796 14.60231675805327
UTC large
Height (km)
Speed (km/s)
/
Latitude / Longitude
Inclination (degrees)
Orbital Period (minutes)
Azimuth
Elevation
Range (km)
Doppler Factor

Next 0 passes for location: London (51.5072 / 0.1276)

Sorry there are no passes over London.